1537574400.23,37390,20.0,74016.3,6.19,-18.11,-18.59,0,*71
1537574401.45,37391,20.0,74008.8,6.21,-18.17,-18.59,0,*7D
1537574402.65,37392,20.0,74014.8,6.19,-18.25,-18.73,0,*7C
1537574403.88,37393,20.0,74016.8,6.19,-18.41,-18.89,0,*7A
1537574405.11,37394,20.0,74020.3,6.17,-18.45,-18.79,0,*78
1537574406.3,37395,20.0,74022.8,6.15,-18.49,-18.79,0,*77
1537574407.5,37396,20.0,74010.0,6.15,-18.49,-18.79,0,*74
1537574408.75,37397,20.0,74010.8,6.17,-18.35,-18.79,0,*7C
1537574409.95,37398,20.0,74010.5,6.15,-18.49,-18.83,0,*7F
1537574411.14,37399,20.0,74016.3,6.15,-18.49,-18.79,0,*7B
1537574412.37,37400,20.0,74016.3,6.15,-18.35,-18.69,0,*76
1537574413.6,37401,20.0,74016.8,6.15,-18.35,-18.69,0,*77
1537574414.83,37402,20.0,74022.8,6.15,-18.41,-18.55,0,*78
1537574416.03,37403,20.0,74016.5,6.15,-18.21,-18.49,0,*72
1537574417.25,37404,20.0,74024.3,6.15,-18.01,-18.41,0,*7F
1537574418.48,37405,20.0,74018.5,6.15,-18.01,-18.25,0,*7C
1537574419.7,37406,20.0,74018.5,6.15,-18.01,-18.25,0,*7F
1537574420.93,37407,20.0,74018.5,6.15,-18.07,-18.35,0,*79
1537574422.13,37408,20.0,74016.8,6.15,-18.07,-18.41,0,*75
1537574423.41,37409,20.0,74014.8,6.13,-18.01,-18.35,0,*77
1537574424.64,37410,20.0,74014.0,6.13,-18.07,-18.21,0,*7C
1537574425.89,37411,20.0,74014.0,6.13,-17.93,-18.21,0,*7F
1537574427.13,37412,20.0,74012.3,6.13,-17.93,-18.25,0,*78
1537574428.36,37413,20.0,74014.3,6.13,-17.87,-18.21,0,*78
1537574429.57,37414,20.0,74016.8,6.15,-17.87,-18.11,0,*7A
1537574430.79,37415,20.0,74018.8,6.15,-17.93,-18.25,0,*79
1537574432.04,37416,20.0,74014.0,6.15,-17.93,-18.35,0,*7B
1537574433.26,37417,20.0,74010.5,6.15,-18.01,-18.25,0,*7F
1537574434.47,37418,20.0,74008.3,6.15,-18.07,-18.21,0,*72
1537574435.69,37419,20.0,74010.5,6.15,-17.79,-18.07,0,*71
1537574436.92,37420,20.0,74018.0,6.15,-17.79,-18.07,0,*7B
1537574438.17,37421,20.0,74022.8,6.15,-17.79,-18.01,0,*7C
1537574439.4,37422,20.0,74006.8,6.15,-17.79,-18.11,0,*7E
1537574440.62,37423,20.0,74008.5,6.17,-17.87,-18.17,0,*7A
1537574441.83,37424,20.0,74010.5,6.15,-18.07,-18.21,0,*7D
1537574443.11,37425,20.0,74012.5,6.17,-17.97,-18.35,0,*7D
1537574444.35,37426,20.0,74020.5,6.15,-18.01,-18.11,0,*7A
1537574445.6,37427,20.0,74026.0,6.17,-17.59,-17.87,0,*7B
1537574446.83,37428,20.0,74022.5,6.15,-17.73,-18.01,0,*7F
1537574448.09,37429,20.0,74022.0,6.17,-17.97,-18.17,0,*71
1537574449.32,37430,20.0,74026.8,6.17,-17.87,-18.21,0,*7D
1537574450.6,37431,20.0,74012.3,6.17,-18.01,-18.35,0,*78
1537574451.85,37432,20.0,74006.0,6.17,-18.17,-18.35,0,*7C
1537574453.11,37433,20.0,74006.3,6.17,-18.35,-18.49,0,*76
1537574454.35,37434,20.0,74010.5,6.17,-18.45,-18.59,0,*77
1537574455.55,37435,20.0,74018.3,6.15,-18.49,-18.49,0,*79
1537574456.76,37436,20.0,74002.0,6.15,-18.25,-18.49,0,*70
1537574457.98,37437,20.0,73996.0,6.15,-18.35,-18.49,0,*70
1537574459.24,37438,20.0,74002.5,6.15,-18.35,-18.55,0,*72
1537574460.46,37439,20.0,74004.8,6.15,-18.41,-18.55,0,*70
1537574461.69,37440,20.0,74012.5,6.15,-18.41,-18.55,0,*7E
1537574462.92,37441,20.0,74012.5,6.13,-18.49,-18.65,0,*72
1537574464.14,37442,20.0,74018.5,6.13,-18.41,-18.65,0,*79
1537574465.39,37443,20.0,74010.5,6.09,-18.45,-18.59,0,*78
1537574466.62,37444,20.0,74012.3,6.13,-18.49,-18.69,0,*7B
1537574467.85,37445,20.0,74018.0,6.13,-18.49,-18.65,0,*76
1537574469.09,37446,20.0,74022.5,6.13,-18.49,-18.55,0,*76
1537574470.32,37447,20.0,74026.0,6.13,-18.25,-18.41,0,*78
1537574471.54,37448,20.0,74024.5,6.09,-18.11,-18.25,0,*79
1537574472.79,37449,20.0,74024.0,6.13,-17.87,-17.93,0,*71
1537574474.04,37450,20.0,74034.3,6.13,-17.93,-18.07,0,*7E
1537574475.27,37451,20.0,74036.5,6.13,-17.87,-18.07,0,*7A
1537574476.51,37452,20.0,74034.0,6.15,-17.93,-18.11,0,*7D
1537574477.76,37453,20.0,74020.0,6.13,-17.93,-18.07,0,*7D
1537574478.99,37454,20.0,74010.3,6.13,-18.11,-18.11,0,*78
1537574480.21,37455,20.0,73998.0,6.13,-18.21,-18.25,0,*7D
1537574481.43,37456,20.0,73998.5,6.13,-18.25,-18.25,0,*7A
1537574482.68,37457,20.0,74006.3,6.13,-18.35,-18.49,0,*70
1537574483.93,37458,20.0,74004.8,6.13,-18.41,-18.55,0,*71
1537574485.18,37459,20.0,73992.5,6.13,-18.49,-18.55,0,*78
1537574486.43,37460,20.0,74000.0,6.13,-18.55,-18.69,0,*70
1537574487.66,37461,20.0,74014.0,6.09,-18.69,-18.73,0,*7E
1537574488.92,37462,20.0,74014.5,6.09,-18.59,-18.69,0,*75
1537574490.15,37463,20.0,74012.0,6.13,-18.65,-18.65,0,*7C
1537574491.38,37464,20.0,74006.5,6.09,-18.45,-18.45,0,*70
1537574492.65,37465,20.0,74008.8,6.09,-18.55,-18.59,0,*7D
1537574493.93,37466,20.0,74000.3,6.09,-18.55,-18.55,0,*72
1537574495.21,37467,20.0,74006.8,6.09,-18.55,-18.55,0,*73
1537574496.46,37468,20.0,74014.8,6.09,-18.55,-18.45,0,*7D
1537574497.67,37469,20.0,74010.3,6.07,-18.45,-18.45,0,*73
1537574498.93,37470,20.0,74020.0,6.07,-18.55,-18.55,0,*7B
1537574500.13,37471,20.0,74012.0,6.07,-18.45,-18.41,0,*7E
1537574501.34,37472,20.0,74004.5,6.07,-18.17,-18.17,0,*79
1537574502.54,37473,20.0,74010.3,6.07,-18.25,-18.17,0,*79
1537574503.79,37474,20.0,74002.3,6.07,-18.41,-18.31,0,*78
1537574505.02,37475,20.0,73998.8,6.05,-18.49,-18.45,0,*70
1537574506.26,37476,20.0,73998.0,6.07,-18.55,-18.59,0,*71
1537574507.51,37477,20.0,73994.5,6.07,-18.59,-18.59,0,*7C
1537574508.75,37478,20.0,73994.0,6.07,-18.69,-18.55,0,*7C
1537574510.0,37479,20.0,73992.8,6.07,-18.59,-18.55,0,*7E
1537574511.23,37480,20.0,73998.8,6.05,-18.65,-18.49,0,*78
1537574512.48,37481,20.0,73994.3,6.05,-18.65,-18.59,0,*78
1537574513.68,37482,20.0,73996.0,6.07,-18.41,-18.25,0,*74
1537574514.91,37483,20.0,74006.3,6.07,-18.07,-17.93,0,*75
1537574516.13,37484,20.0,74006.8,6.07,-18.11,-18.11,0,*70
1537574517.36,37485,20.0,74012.0,6.09,-18.25,-18.17,0,*7E
1537574518.61,37486,20.0,74008.8,6.09,-18.31,-18.17,0,*78
1537574519.87,37487,20.0,73992.3,6.05,-18.49,-18.35,0,*7A
1537574521.1,37488,20.0,74002.3,6.07,-18.55,-18.45,0,*7D
1537574522.33,37489,20.0,73994.5,6.07,-18.55,-18.41,0,*78
1537574523.56,37490,20.0,74000.0,6.05,-18.49,-18.45,0,*7B
1537574524.8,37491,20.0,74000.5,6.07,-18.45,-18.31,0,*77
1537574526.08,37492,20.0,74006.8,6.05,-18.59,-18.31,0,*7B
1537574527.35,37493,20.0,74008.5,6.07,-18.55,-18.31,0,*74
1537574528.58,37494,20.0,74008.8,6.07,-18.55,-18.41,0,*74
1537574529.79,37495,20.0,74010.5,6.07,-18.49,-18.45,0,*7C
1537574531.01,37496,20.0,74018.8,6.05,-18.65,-18.45,0,*73
1537574532.25,37497,20.0,74014.8,6.07,-18.59,-18.45,0,*7F
1537574533.49,37498,20.0,74016.3,6.05,-18.73,-18.59,0,*77
1537574534.72,37499,20.0,74016.3,6.05,-18.79,-18.65,0,*73
1537574535.98,37500,20.0,74020.3,6.05,-18.65,-18.35,0,*7A
1537574537.24,37501,20.0,74022.0,6.05,-18.65,-18.31,0,*7F
1537574538.5,37502,20.0,74016.8,6.05,-18.65,-18.31,0,*7C
1537574539.76,37503,20.0,74026.3,6.05,-18.65,-18.31,0,*7D
1537574541.02,37504,20.0,74022.8,6.05,-18.65,-18.31,0,*7A
1537574542.26,37505,20.0,74020.0,6.03,-18.65,-18.35,0,*79
1537574543.46,37506,20.06,74018.8,6.03,-18.65,-18.41,0,*79
1537574544.69,37507,20.0,74010.5,6.03,-18.65,-18.35,0,*7B
1537574545.9,37508,20.0,74018.8,6.03,-18.69,-18.41,0,*7B
1537574547.13,37509,20.0,74018.0,6.03,-18.79,-18.55,0,*7E
1537574548.34,37510,20.0,74012.8,6.03,-18.79,-18.49,0,*7B
1537574549.57,37511,20.0,74018.0,6.01,-18.79,-18.49,0,*78
1537574550.78,37512,20.0,74020.8,6.03,-18.79,-18.49,0,*79
1537574552.01,37513,20.0,74024.3,6.01,-18.83,-18.49,0,*7F
1537574553.27,37514,20.0,74020.3,6.01,-18.69,-18.35,0,*77
1537574554.52,37515,20.0,74020.0,6.01,-18.55,-18.21,0,*7C
1537574555.75,37516,20.0,74020.5,6.03,-18.55,-18.21,0,*7D
1537574556.98,37517,20.06,74022.5,6.01,-18.49,-18.07,0,*77
1537574558.19,37518,20.0,74018.8,6.03,-18.49,-18.17,0,*7B
1537574559.42,37519,20.0,74014.0,6.03,-18.55,-18.21,0,*72
1537574560.65,37520,20.0,74014.8,6.03,-18.55,-18.21,0,*78
1537574561.87,37521,20.0,74000.8,6.01,-18.65,-18.25,0,*7C
1537574563.09,37522,20.0,73986.8,6.01,-18.65,-18.25,0,*7F
1537574564.33,37523,20.0,73990.0,6.03,-18.79,-18.35,0,*70
1537574565.59,37524,20.0,73996.5,6.01,-18.79,-18.35,0,*75
1537574566.85,37525,20.0,74004.8,6.01,-18.79,-18.35,0,*74
1537574568.09,37526,20.0,74008.3,5.97,-18.89,-18.41,0,*77
1537574569.32,37527,20.0,74018.3,6.01,-18.79,-18.41,0,*75
1537574570.57,37528,20.0,74016.8,5.97,-18.89,-18.49,0,*71
1537574571.82,37529,20.0,74026.8,5.97,-18.89,-18.49,0,*70
1537574573.04,37530,20.06,74022.3,5.99,-18.89,-18.41,0,*7E
1537574574.27,37531,20.06,74012.3,5.99,-18.89,-18.45,0,*7B
1537574575.48,37532,20.0,74030.5,5.99,-18.83,-18.45,0,*72
1537574576.72,37533,20.0,74016.5,5.99,-18.73,-18.31,0,*7F
1537574577.99,37534,20.0,74010.5,5.97,-18.89,-18.35,0,*77
1537574579.2,37535,20.06,74006.0,5.99,-18.83,-18.41,0,*71
1537574580.45,37536,20.0,74004.8,5.97,-18.89,-18.45,0,*72
1537574581.73,37537,20.06,74014.3,5.97,-18.89,-18.35,0,*74
1537574582.98,37538,20.06,74014.8,5.97,-18.89,-18.45,0,*7C
1537574584.24,37539,20.0,74016.0,5.97,-18.79,-18.31,0,*71
1537574585.5,37540,20.06,74010.8,5.97,-18.79,-18.31,0,*7F
1537574586.7,37541,20.0,74002.5,5.95,-18.65,-18.17,0,*75
1537574587.94,37542,20.0,73978.8,5.95,-18.73,-18.35,0,*71
1537574589.19,37543,20.06,73974.0,5.95,-18.89,-18.35,0,*75
1537574590.4,37544,20.0,73984.0,5.95,-19.03,-18.45,0,*76
1537574591.61,37545,20.0,73994.5,5.95,-19.07,-18.45,0,*73
1537574592.83,37546,20.06,74008.5,5.99,-18.89,-18.41,0,*7F
1537574594.04,37547,20.0,74014.8,5.95,-19.03,-18.45,0,*75
1537574595.27,37548,20.0,74018.3,5.93,-18.99,-18.49,0,*72
1537574596.5,37549,20.0,74010.5,5.93,-18.83,-18.21,0,*76
1537574597.71,37550,20.0,74012.8,5.95,-18.79,-18.25,0,*79
1537574598.97,37551,20.06,74004.3,5.93,-18.79,-18.31,0,*7B
1537574600.23,37552,20.0,74020.8,5.93,-18.83,-18.35,0,*79
1537574601.47,37553,20.0,74018.3,5.93,-18.99,-18.49,0,*78
1537574602.76,37554,20.06,74020.0,5.93,-18.93,-18.35,0,*7E
1537574604.02,37555,20.0,74018.0,5.93,-18.83,-18.31,0,*7A
1537574605.28,37556,20.0,74016.3,5.93,-18.83,-18.35,0,*7D
1537574606.51,37557,20.0,74022.3,5.93,-18.83,-18.17,0,*7C
1537574607.77,37558,20.06,74022.8,5.93,-18.69,-18.01,0,*70
1537574609.03,37559,20.0,74018.5,5.93,-18.69,-17.93,0,*75
1537574610.24,37560,20.0,74022.5,5.95,-18.65,-17.87,0,*70
1537574611.48,37561,20.0,74020.8,5.93,-18.65,-17.87,0,*77
1537574612.72,37562,20.0,74018.0,5.93,-18.65,-17.87,0,*74
1537574613.96,37563,20.0,74018.3,5.93,-18.65,-17.87,0,*75
1537574615.22,37564,20.06,74018.0,5.93,-18.55,-17.87,0,*71
1537574616.48,37565,20.06,74014.0,5.93,-18.65,-17.79,0,*72
1537574617.74,37566,20.06,74022.3,5.93,-18.55,-17.73,0,*78
1537574618.94,37567,20.0,74018.0,5.95,-18.45,-17.73,0,*7E
1537574620.2,37568,20.06,74022.5,5.93,-18.49,-17.63,0,*7A
1537574621.43,37569,20.06,74026.8,5.93,-18.49,-17.73,0,*7A
1537574622.69,37570,20.06,74026.8,5.93,-18.65,-17.79,0,*76
1537574623.92,37571,20.0,74026.0,5.95,-18.59,-17.73,0,*74
1537574625.13,37572,20.06,74026.5,5.95,-18.49,-17.69,0,*7D
1537574626.39,37573,20.06,74026.0,5.93,-18.55,-17.87,0,*77
1537574627.63,37574,20.0,74020.3,5.93,-18.65,-17.87,0,*73
1537574628.86,37575,20.0,74016.5,5.93,-18.65,-17.73,0,*79
1537574630.07,37576,20.0,74000.0,5.95,-18.49,-17.69,0,*79
1537574631.3,37577,20.06,73990.8,5.93,-18.69,-17.73,0,*77
1537574632.51,37578,20.06,73994.3,5.95,-18.73,-17.87,0,*7E
1537574633.77,37579,20.06,73996.5,5.93,-18.79,-18.01,0,*72
1537574635.03,37580,20.0,73998.5,5.93,-18.79,-17.93,0,*70
1537574636.26,37581,20.06,73980.3,5.91,-18.83,-18.01,0,*72
1537574637.5,37582,20.0,73972.0,5.91,-18.83,-18.01,0,*71
1537574638.73,37583,20.06,74026.0,5.91,-18.93,-18.17,0,*76
1537574639.97,37584,20.06,74026.0,5.91,-18.93,-18.07,0,*70
1537574641.2,37585,20.06,74032.5,5.91,-18.83,-17.93,0,*72
1537574642.41,37586,20.06,74030.5,5.91,-18.79,-17.87,0,*71
1537574643.62,37587,20.06,74032.0,5.91,-18.79,-17.87,0,*70
1537574644.86,37588,20.0,74030.8,5.91,-18.69,-17.79,0,*7F
1537574646.09,37589,20.0,74024.3,5.89,-18.69,-17.69,0,*76
1537574647.32,37590,20.06,74024.5,5.91,-18.41,-17.45,0,*73
1537574648.56,37591,20.06,74028.3,5.91,-18.41,-17.45,0,*72
1537574649.81,37592,20.06,74026.0,5.89,-18.59,-17.49,0,*7D
1537574651.08,37593,20.0,74010.0,5.89,-18.59,-17.63,0,*74
1537574652.31,37594,20.0,74026.8,5.91,-18.65,-17.63,0,*75
1537574653.57,37595,20.06,74030.3,5.91,-18.55,-17.59,0,*7E
1537574654.82,37596,20.06,74028.5,5.89,-18.55,-17.49,0,*75
1537574656.08,37597,20.06,74012.3,5.91,-18.55,-17.45,0,*71
1537574657.31,37598,20.0,74006.3,5.91,-18.79,-17.63,0,*74
1537574658.57,37599,20.06,74004.3,5.89,-18.69,-17.63,0,*7D
1537574659.82,37600,20.06,73998.5,5.89,-18.83,-17.79,0,*71
1537574661.07,37601,20.06,74014.0,5.89,-18.83,-17.79,0,*70
1537574662.32,37602,20.06,74010.8,5.89,-18.83,-17.79,0,*73
1537574663.58,37603,20.06,74010.5,5.89,-18.73,-17.63,0,*76
1537574664.78,37604,20.06,74022.5,5.91,-18.69,-17.73,0,*72
1537574666.01,37605,20.06,74020.0,5.89,-18.73,-17.49,0,*78
1537574667.25,37606,20.06,74008.0,5.91,-18.79,-17.59,0,*79
1537574668.5,37607,20.06,74028.3,5.89,-18.73,-17.63,0,*72
1537574669.75,37608,20.06,74022.0,5.89,-18.73,-17.63,0,*7D
1537574670.97,37609,20.06,74020.8,5.89,-18.73,-17.49,0,*74
1537574672.23,37610,20.06,74016.5,5.89,-18.83,-17.63,0,*7B
1537574673.45,37611,20.0,74024.3,5.83,-18.89,-17.69,0,*70
1537574674.7,37612,20.0,74032.5,5.89,-18.73,-17.63,0,*76
1537574675.95,37613,20.06,74036.5,5.89,-18.59,-17.35,0,*7C
1537574677.21,37614,20.0,74030.0,5.89,-18.45,-17.21,0,*73
1537574678.45,37615,20.06,74030.3,5.85,-18.59,-17.35,0,*76
1537574679.67,37616,20.06,74026.0,5.85,-18.73,-17.49,0,*76
1537574680.86,37617,20.06,74026.0,5.83,-18.73,-17.49,0,*71
1537574682.11,37618,20.0,74020.0,5.85,-18.73,-17.41,0,*70
1537574683.32,37619,20.06,74028.3,5.85,-18.65,-17.49,0,*7E
1537574684.54,37620,20.06,74028.3,5.83,-18.73,-17.25,0,*7F
1537574685.78,37621,20.06,74014.0,5.85,-18.49,-17.25,0,*71
1537574687.01,37622,20.06,74008.8,5.85,-18.65,-17.35,0,*7D
1537574688.25,37623,20.06,74008.0,5.85,-18.73,-17.41,0,*78
1537574689.46,37624,20.06,74004.8,5.83,-18.73,-17.35,0,*7A
1537574690.68,37625,20.06,73996.0,5.85,-18.79,-17.35,0,*77
1537574691.91,37626,20.06,73990.0,5.85,-18.73,-17.35,0,*7E
1537574693.15,37627,20.06,73990.5,5.85,-18.65,-17.21,0,*7D
1537574694.37,37628,20.0,73982.3,5.83,-18.49,-17.11,0,*79
1537574695.64,37629,20.06,73970.3,5.85,-18.59,-17.21,0,*7C
1537574696.88,37630,20.06,73964.3,5.85,-18.65,-17.25,0,*7F
1537574698.1,37631,20.06,73968.8,5.83,-18.89,-17.35,0,*7B
1537574699.37,37632,20.06,73964.0,5.85,-18.89,-17.41,0,*7D
1537574700.57,37633,20.06,74000.8,5.83,-18.79,-17.35,0,*76
1537574701.82,37634,20.06,74008.3,5.83,-18.59,-17.11,0,*75
1537574703.01,37635,20.06,73994.3,5.83,-18.49,-16.93,0,*7E
1537574704.26,37636,20.06,74004.0,5.83,-18.59,-17.11,0,*77
1537574705.48,37637,20.06,74004.8,5.83,-18.73,-17.21,0,*7D
1537574706.71,37638,20.06,74008.3,5.83,-18.65,-17.07,0,*71
1537574707.94,37639,20.06,74014.8,5.83,-18.65,-17.07,0,*70
1537574709.2,37640,20.06,74018.8,5.83,-18.59,-17.07,0,*71
1537574710.4,37641,20.06,74014.5,5.83,-18.45,-16.83,0,*70
1537574711.6,37642,20.06,74014.3,5.83,-18.45,-16.79,0,*76
1537574712.82,37643,20.06,74008.0,5.81,-18.45,-16.75,0,*79
1537574714.07,37644,20.06,74010.0,5.81,-18.35,-16.83,0,*70
1537574715.27,37645,20.06,74004.0,5.83,-18.25,-16.79,0,*77
1537574716.49,37646,20.06,74018.3,5.83,-18.17,-16.69,0,*74
1537574717.71,37647,20.06,74012.0,5.83,-18.17,-16.65,0,*79
1537574718.93,37648,20.06,74000.3,5.83,-18.11,-16.65,0,*70
1537574720.15,37649,20.06,73996.5,5.83,-18.17,-16.65,0,*77
1537574721.37,37650,20.06,74002.5,5.83,-17.97,-16.45,0,*7A
1537574722.62,37651,20.06,74002.8,5.83,-18.01,-16.31,0,*78
1537574723.87,37652,20.06,74004.0,5.83,-18.01,-16.31,0,*7B
1537574725.12,37653,20.06,74010.3,5.83,-17.97,-16.17,0,*7E
1537574726.35,37654,20.06,74012.3,5.83,-17.87,-16.17,0,*78
1537574727.6,37655,20.06,74006.8,5.83,-18.01,-16.23,0,*7F
1537574728.86,37656,20.06,74010.0,5.85,-18.01,-16.31,0,*79
1537574730.11,37657,20.06,74002.3,5.83,-17.97,-16.31,0,*7E
1537574731.33,37658,20.06,73990.0,5.83,-18.01,-16.45,0,*72
1537574732.55,37659,20.06,73994.0,5.83,-17.97,-16.37,0,*76
1537574733.8,37660,20.06,74000.5,5.83,-18.01,-16.31,0,*7A
1537574735.04,37661,20.06,74002.0,5.85,-18.01,-16.37,0,*7B
1537574736.29,37662,20.06,74004.0,5.83,-18.01,-16.31,0,*78
1537574737.54,37663,20.06,74000.3,5.83,-17.97,-16.09,0,*72
1537574738.79,37664,20.06,73996.8,5.85,-17.73,-15.89,0,*72
1537574739.98,37665,20.06,73988.8,5.83,-17.83,-16.03,0,*7B
1537574741.2,37666,20.06,73994.5,5.85,-17.87,-16.03,0,*7A
1537574742.48,37667,20.06,73988.8,5.85,-17.97,-16.17,0,*7F
1537574743.68,37668,20.06,73996.3,5.83,-17.87,-16.03,0,*72
1537574744.9,37669,20.06,73996.8,5.85,-17.83,-15.95,0,*7D
1537574746.12,37670,20.06,73994.0,5.85,-17.87,-16.03,0,*7D
1537574747.36,37671,20.06,73990.5,5.85,-17.83,-15.89,0,*79
1537574748.6,37672,20.06,73992.0,5.85,-18.11,-16.23,0,*7D
1537574749.86,37673,20.06,74000.5,5.89,-18.07,-16.17,0,*70
1537574751.11,37674,20.06,73996.8,5.85,-18.11,-16.09,0,*73
1537574752.36,37675,20.06,73998.5,5.89,-17.97,-16.03,0,*75
1537574753.62,37676,20.06,73992.8,5.89,-17.97,-16.03,0,*76
1537574754.87,37677,20.06,73994.0,5.89,-18.11,-16.31,0,*77
1537574756.1,37678,20.06,73994.5,5.89,-18.21,-16.41,0,*7C
1537574757.36,37679,20.06,74002.3,5.89,-18.07,-16.17,0,*7A
1537574758.61,37680,20.06,74002.3,5.89,-17.97,-16.03,0,*7F
1537574759.89,37681,20.06,74006.8,5.89,-17.93,-15.89,0,*7B
1537574761.12,37682,20.06,74006.5,5.89,-17.83,-15.75,0,*7A
1537574762.35,37683,20.06,74008.3,5.89,-17.69,-15.75,0,*7F
1537574763.6,37684,20.06,74010.0,5.89,-17.63,-15.71,0,*76
1537574764.86,37685,20.06,74010.5,5.91,-17.63,-15.57,0,*7A
1537574766.09,37686,20.06,74016.3,5.89,-17.69,-15.63,0,*7D
1537574767.32,37687,20.06,74012.0,5.89,-17.83,-15.75,0,*7F
1537574768.57,37688,20.06,74012.8,5.89,-17.79,-15.75,0,*75
1537574769.83,37689,20.06,74018.0,5.89,-17.93,-15.75,0,*70
1537574771.11,37690,20.06,74014.3,5.89,-17.93,-15.85,0,*77
1537574772.39,37691,20.06,74008.5,5.89,-17.97,-15.85,0,*72
1537574773.62,37692,20.06,74012.3,5.89,-18.07,-16.03,0,*7A
1537574774.85,37693,20.06,74016.0,5.89,-18.07,-16.03,0,*7B
1537574776.05,37694,20.06,74020.3,5.91,-18.21,-15.99,0,*71
1537574777.26,37695,20.06,74016.3,5.91,-18.07,-15.99,0,*74
1537574778.49,37696,20.06,74018.5,5.89,-18.11,-15.99,0,*79
1537574779.74,37697,20.06,74022.5,5.89,-18.07,-15.85,0,*72
1537574781.0,37698,20.06,74024.0,5.89,-18.07,-15.85,0,*7D
1537574782.26,37699,20.06,74022.8,5.89,-18.07,-15.89,0,*70
1537574783.51,37700,20.06,74028.3,5.89,-18.11,-15.89,0,*76
1537574784.76,37701,20.06,74020.0,5.89,-18.07,-15.85,0,*7C
1537574786.02,37702,20.06,74022.5,5.89,-18.07,-15.85,0,*7F
1537574787.28,37703,20.06,74020.3,5.89,-18.07,-15.85,0,*7E
1537574788.53,37704,20.06,74016.5,5.89,-17.93,-15.71,0,*70
1537574789.79,37705,20.06,74016.0,5.89,-17.97,-15.71,0,*75
1537574791.05,37706,20.06,74016.3,5.89,-17.97,-15.71,0,*76
1537574792.31,37707,20.06,74010.5,5.89,-17.97,-15.71,0,*77
1537574793.56,37708,20.06,74010.5,5.85,-18.11,-15.81,0,*7A
1537574794.78,37709,20.06,74008.8,5.83,-18.11,-15.81,0,*7D
1537574796.0,37710,20.06,74010.0,5.85,-18.11,-15.75,0,*78
1537574797.22,37711,20.06,74018.0,5.85,-18.11,-15.75,0,*79
1537574798.45,37712,20.06,74016.5,5.83,-18.01,-15.75,0,*7D
1537574799.67,37713,20.06,74018.5,5.83,-18.17,-15.81,0,*70
1537574800.9,37714,20.06,74018.0,5.83,-18.17,-15.81,0,*77
1537574802.15,37715,20.06,74026.5,5.85,-18.11,-15.81,0,*76
1537574803.37,37716,20.06,74028.5,5.83,-18.17,-15.81,0,*75
1537574804.57,37717,20.06,74038.8,5.83,-18.17,-15.75,0,*7F
1537574805.77,37718,20.06,74032.5,5.83,-18.11,-15.75,0,*76
1537574807.0,37719,20.06,74032.3,5.83,-17.97,-15.63,0,*71
1537574808.23,37720,20.06,74014.0,5.83,-18.01,-15.63,0,*7B
1537574809.45,37721,20.06,74028.5,5.83,-18.01,-15.63,0,*7A
1537574810.68,37722,20.06,74012.5,5.83,-17.97,-15.49,0,*71
1537574811.94,37723,20.06,73964.0,5.83,-17.97,-15.43,0,*7A
1537574813.13,37724,20.06,73968.0,5.83,-18.11,-15.67,0,*7A
1537574814.35,37725,20.06,73972.3,5.81,-18.17,-15.67,0,*7F
1537574815.54,37726,20.06,73988.3,5.83,-18.17,-15.67,0,*7E
1537574816.74,37727,20.06,74014.5,5.83,-18.17,-15.63,0,*7B
1537574817.99,37728,20.06,74006.3,5.81,-18.07,-15.39,0,*78
1537574819.23,37729,20.06,74016.0,5.79,-18.01,-15.35,0,*74
1537574820.48,37730,20.06,74010.8,5.81,-17.93,-15.25,0,*7E
1537574821.71,37731,20.06,74006.0,5.81,-17.87,-15.25,0,*7A
1537574822.95,37732,20.06,74014.5,5.81,-17.79,-15.11,0,*7F
1537574824.17,37733,20.06,74012.5,5.81,-17.87,-15.11,0,*7F
1537574825.39,37734,20.06,74014.5,5.79,-17.79,-15.11,0,*7E
1537574826.63,37735,20.06,74012.8,5.81,-17.79,-15.11,0,*78
1537574827.9,37736,20.06,74018.5,5.81,-17.79,-14.97,0,*74
1537574829.14,37737,20.06,74016.3,5.81,-17.79,-15.07,0,*7D
1537574830.38,37738,20.06,74014.5,5.81,-17.73,-14.97,0,*70
1537574831.64,37739,20.06,74014.0,5.81,-17.63,-14.93,0,*74
1537574832.87,37740,20.06,74022.3,5.83,-17.55,-14.89,0,*76
1537574834.14,37741,20.06,74018.3,5.81,-17.59,-14.83,0,*73
1537574835.4,37742,20.06,74026.5,5.81,-17.63,-14.93,0,*78
1537574836.65,37743,20.06,74018.0,5.83,-17.55,-14.75,0,*76
1537574837.89,37744,20.06,74002.0,5.81,-17.73,-14.93,0,*7F
1537574839.1,37745,20.06,73996.8,5.79,-17.73,-14.93,0,*79
1537574840.37,37746,20.06,74002.0,5.81,-17.63,-14.83,0,*7D
1537574841.63,37747,20.06,74000.8,5.81,-17.59,-14.75,0,*7C
1537574842.86,37748,20.06,74006.5,5.83,-17.49,-14.55,0,*72
1537574844.09,37749,20.06,74008.3,5.83,-17.41,-14.61,0,*7C
1537574845.31,37750,20.06,74006.8,5.83,-17.41,-14.61,0,*74
1537574846.56,37751,20.06,74010.0,5.81,-17.55,-14.61,0,*72
1537574847.79,37752,20.06,74022.8,5.83,-17.35,-14.47,0,*71
1537574849.01,37753,20.06,74022.8,5.83,-17.35,-14.47,0,*70
1537574850.27,37754,20.06,74006.0,5.83,-17.25,-14.47,0,*76
1537574851.54,37755,20.06,74004.5,5.81,-17.59,-14.79,0,*73
1537574852.78,37756,20.06,74010.5,5.81,-17.55,-14.61,0,*75
1537574854.03,37757,20.06,73994.0,5.81,-17.45,-14.61,0,*75
1537574855.27,37758,20.06,74000.0,5.81,-17.59,-14.65,0,*73
1537574856.52,37759,20.06,74006.3,5.81,-17.55,-14.65,0,*7E
1537574857.79,37760,20.06,74002.0,5.81,-17.41,-14.47,0,*71
1537574859.03,37761,20.06,74004.5,5.81,-17.63,-14.61,0,*74
1537574860.28,37762,20.06,74004.5,5.79,-17.45,-14.51,0,*77
1537574861.5,37763,20.06,74014.0,5.79,-17.31,-14.47,0,*72
1537574862.71,37764,20.06,74006.0,5.81,-17.31,-14.37,0,*75
1537574863.93,37765,20.06,74020.5,5.81,-17.31,-14.33,0,*70
1537574865.15,37766,20.06,74006.3,5.79,-17.17,-14.19,0,*78
1537574866.37,37767,20.06,74004.8,5.79,-17.17,-14.19,0,*79
1537574867.61,37768,20.06,73994.0,5.81,-17.25,-14.19,0,*70
1537574868.86,37769,20.06,74004.5,5.81,-17.17,-14.19,0,*70
1537574870.08,37770,20.06,74010.0,5.81,-17.31,-14.23,0,*75
1537574871.34,37771,20.06,74018.5,5.81,-17.55,-14.51,0,*73
1537574872.6,37772,20.06,74012.8,5.79,-17.45,-14.47,0,*71
1537574873.86,37773,20.06,74012.3,5.81,-17.59,-14.51,0,*7D
1537574875.11,37774,20.06,74020.3,5.79,-17.55,-14.47,0,*76
1537574876.33,37775,20.06,74024.3,5.79,-17.59,-14.37,0,*7C
1537574877.55,37776,20.06,74018.8,5.79,-17.55,-14.33,0,*77
1537574878.74,37777,20.06,74022.0,5.79,-17.31,-14.19,0,*7C
1537574879.92,37778,20.06,74016.0,5.79,-17.31,-14.19,0,*73
1537574881.14,37779,20.06,74018.8,5.79,-17.17,-14.11,0,*7E
1537574882.39,37780,20.06,74014.5,5.79,-17.17,-14.05,0,*7D
1537574883.6,37781,20.06,74016.0,5.77,-17.31,-14.11,0,*73
1537574884.87,37782,20.06,74010.0,5.77,-17.07,-13.87,0,*7D
1537574886.13,37783,20.06,74008.3,5.77,-17.17,-13.87,0,*7D
1537574887.41,37784,20.06,74010.5,5.77,-17.17,-14.01,0,*73
1537574888.62,37785,20.06,74014.0,5.77,-17.31,-14.15,0,*73
1537574889.87,37786,20.06,74008.8,5.77,-17.45,-14.15,0,*73
1537574891.12,37787,20.06,74012.5,5.77,-17.45,-14.29,0,*7D
1537574892.34,37788,20.06,74010.8,5.77,-17.35,-14.15,0,*7A
1537574893.58,37789,20.06,74016.0,5.77,-17.31,-14.01,0,*7A
1537574894.78,37790,20.06,74012.8,5.75,-17.35,-14.19,0,*7D
1537574895.98,37791,20.06,74012.8,5.75,-17.35,-14.15,0,*70
1537574897.23,37792,20.06,74016.8,5.75,-17.21,-14.01,0,*73
1537574898.47,37793,20.06,74018.5,5.75,-17.25,-14.05,0,*72
1537574899.74,37794,20.06,74014.8,5.77,-17.21,-13.87,0,*7E
1537574900.96,37795,20.06,74014.8,5.75,-17.35,-14.05,0,*75
1537574902.16,37796,20.06,74012.5,5.75,-17.35,-14.19,0,*7B
1537574903.38,37797,20.06,74012.0,5.77,-17.35,-14.15,0,*74
1537574904.61,37798,20.06,74010.8,5.75,-17.41,-14.15,0,*7A
1537574905.88,37799,20.06,74008.3,5.73,-17.41,-14.05,0,*7C